Algona, IA

12:39 AM CST on February 11, 2016 (GMT -0600)
Algona Municipal

Weather History for KAXA - September, 2013

Change the Weather History Date:

Thursday, September 19, 2013

  Actual Average Record
Temperature  
Mean Temperature 71 °F -  
Max Temperature 80 °F 70 °F 91 °F (1998)
Min Temperature 60 °F 48 °F 39 °F (2003)
Cooling Degree Days 6    
Growing Degree Days 21 (Base 50)    
Moisture  
Dew Point 65 °F    
Average Humidity 79    
Maximum Humidity 94    
Minimum Humidity 58    
Precipitation  
Precipitation 0.05 in - - ()
Sea Level Pressure  
Sea Level Pressure 29.77 in    
Wind  
Wind Speed 12 mph (WSW)    
Max Wind Speed 20 mph    
Max Gust Speed 30 mph    
Visibility 10 miles    
Events Rain    
Averages and records for this station are not official NWS values.
T = Trace of Precipitation, MM = Missing Value Source: NWS Daily Summary

Daily Weather History Graph

Daily Weather History Graph

Search for Another Location

Airport or City:

Trip Planner

Search our weather history database for the weather conditions in past years. The results will help you decide how hot, cold, wet, or windy it might be!

Date:

Astronomy

Sep. 19, 2013 Rise Set
Actual Time 7:01 AM CDT 7:19 PM CDT
Civil Twilight 6:32 AM CDT 7:47 PM CDT
Nautical Twilight 5:59 AM CDT 8:21 PM CDT
Astronomical Twilight 5:25 AM CDT 8:55 PM CDT
Moon 7:15 PM CDT (9/19) 7:12 AM CDT (9/19)
Length of Visible Light 13h 14m
Length of Day
12h 17m
Full, 100% of the Moon is Illuminated
Sep 19
Full
Sep 26
Last Quarter
Oct 4
New
Oct 11
First Quarter
Oct 18
Full

Hourly Weather History & Observations

Time (CDT) Temp. Heat Index Dew Point Humidity Pressure Visibility Wind Dir Wind Speed Gust Speed Precip Events Conditions
12:15 AM 77.0 °F - 69.8 °F 78% 29.73 in 10.0 mi South 16.1 mph 25.3 mph N/A   Clear
12:35 AM 77.0 °F - 69.8 °F 78% 29.73 in 10.0 mi South 16.1 mph - N/A   Partly Cloudy
12:55 AM 77.0 °F - 69.8 °F 78% 29.73 in 10.0 mi South 18.4 mph - N/A   Mostly Cloudy
1:15 AM 77.0 °F - 69.8 °F 78% 29.73 in 10.0 mi South 16.1 mph 21.9 mph N/A   Mostly Cloudy
1:35 AM 75.2 °F - 69.8 °F 83% 29.72 in 10.0 mi South 17.3 mph - N/A   Scattered Clouds
1:55 AM 75.2 °F - 69.8 °F 83% 29.73 in 10.0 mi South 15.0 mph 20.7 mph N/A   Scattered Clouds
2:15 AM 73.4 °F - 69.8 °F 88% 29.73 in 10.0 mi South 13.8 mph - N/A   Partly Cloudy
2:35 AM 73.4 °F - 69.8 °F 88% 29.72 in 10.0 mi South 12.7 mph - N/A   Scattered Clouds
2:55 AM 73.4 °F - 69.8 °F 88% 29.72 in 10.0 mi South 11.5 mph - N/A   Mostly Cloudy
3:15 AM 73.4 °F - 69.8 °F 88% 29.72 in 10.0 mi South 12.7 mph - N/A   Partly Cloudy
3:35 AM 73.4 °F - 68.0 °F 83% 29.71 in 10.0 mi South 13.8 mph - N/A   Clear
3:55 AM 73.4 °F - 68.0 °F 83% 29.71 in 10.0 mi South 13.8 mph - N/A   Clear
4:15 AM 73.4 °F - 68.0 °F 83% 29.70 in 10.0 mi South 13.8 mph - N/A   Clear
4:35 AM 71.6 °F - 68.0 °F 88% 29.69 in 10.0 mi South 13.8 mph - N/A   Clear
4:55 AM 71.6 °F - 68.0 °F 88% 29.69 in 10.0 mi South 15.0 mph - N/A   Clear
5:15 AM 71.6 °F - 68.0 °F 88% 29.68 in 10.0 mi South 15.0 mph - N/A   Clear
5:35 AM 71.6 °F - 68.0 °F 88% 29.68 in 10.0 mi South 12.7 mph - N/A   Clear
5:55 AM 71.6 °F - 68.0 °F 88% 29.68 in 10.0 mi South 12.7 mph - N/A   Clear
6:15 AM 69.8 °F - 68.0 °F 94% 29.70 in 10.0 mi South 11.5 mph - N/A   Clear
6:35 AM 69.8 °F - 68.0 °F 94% 29.71 in 10.0 mi South 8.1 mph - N/A   Clear
6:55 AM 71.6 °F - 66.2 °F 83% 29.72 in 10.0 mi SSE 10.4 mph - N/A   Clear
7:15 AM 71.6 °F - 66.2 °F 83% 29.71 in 10.0 mi SSE 6.9 mph - N/A   Clear
7:35 AM 71.6 °F - 66.2 °F 83% 29.70 in 10.0 mi South 9.2 mph - N/A   Clear
7:55 AM 71.6 °F - 66.2 °F 83% 29.70 in 10.0 mi South 9.2 mph - N/A   Clear
8:15 AM 71.6 °F - 66.2 °F 83% 29.70 in 10.0 mi SSW 9.2 mph - N/A   Clear
8:35 AM 71.6 °F - 66.2 °F 83% 29.70 in 10.0 mi South 9.2 mph - N/A   Clear
8:55 AM 73.4 °F - 66.2 °F 78% 29.70 in 10.0 mi South 8.1 mph - N/A   Clear
9:15 AM 75.2 °F - 68.0 °F 78% 29.71 in 10.0 mi SSW 11.5 mph - N/A   Clear
9:35 AM 75.2 °F - 66.2 °F 73% 29.71 in 10.0 mi SW 13.8 mph - N/A   Clear
9:55 AM 77.0 °F - 66.2 °F 69% 29.74 in 10.0 mi WSW 19.6 mph - N/A   Clear
10:15 AM 77.0 °F - 68.0 °F 74% 29.76 in 10.0 mi West 13.8 mph 24.2 mph N/A   Mostly Cloudy
10:35 AM 77.0 °F - 68.0 °F 74% 29.77 in 10.0 mi West 10.4 mph - N/A   Mostly Cloudy
10:55 AM 80.6 °F 82.7 °F 66.2 °F 61% 29.76 in 10.0 mi West 16.1 mph - N/A   Mostly Cloudy
11:15 AM 80.6 °F 82.7 °F 66.2 °F 61% 29.75 in 10.0 mi West 10.4 mph 20.7 mph N/A   Scattered Clouds
11:35 AM 80.6 °F 82.3 °F 64.4 °F 58% 29.76 in 10.0 mi WSW 11.5 mph - N/A   Clear
11:55 AM 80.6 °F 82.3 °F 64.4 °F 58% 29.77 in 10.0 mi WSW 10.4 mph 19.6 mph N/A   Clear
12:15 PM 77.0 °F - 66.2 °F 69% 29.79 in 10.0 mi West 16.1 mph - N/A   Mostly Cloudy
12:35 PM 75.2 °F - 64.4 °F 69% 29.81 in 10.0 mi WSW 18.4 mph 29.9 mph N/A   Overcast
12:55 PM 75.2 °F - 66.2 °F 73% 29.81 in 4.0 mi WSW 16.1 mph 25.3 mph 0.03 in Rain Heavy Rain
1:15 PM 73.4 °F - 68.0 °F 83% 29.82 in 10.0 mi WSW 12.7 mph 21.9 mph N/A   Mostly Cloudy
1:35 PM 73.4 °F - 68.0 °F 83% 29.82 in 10.0 mi WSW 15.0 mph 23.0 mph N/A   Scattered Clouds
1:55 PM 73.4 °F - 68.0 °F 83% 29.79 in 10.0 mi West 6.9 mph 12.7 mph 0.01 in   Light Drizzle
2:15 PM 73.4 °F - 68.0 °F 83% 29.75 in 10.0 mi NNW 9.2 mph - N/A   Scattered Clouds
2:35 PM 73.4 °F - 66.2 °F 78% 29.77 in 10.0 mi NW 10.4 mph - N/A   Clear
2:55 PM 75.2 °F - 66.2 °F 73% 29.76 in 10.0 mi NW 11.5 mph - 0.01 in   Clear
3:15 PM 75.2 °F - 64.4 °F 69% 29.76 in 10.0 mi NNW 11.5 mph - N/A   Clear
3:35 PM 73.4 °F - 64.4 °F 73% 29.78 in 10.0 mi WNW 6.9 mph 12.7 mph N/A   Scattered Clouds
3:55 PM 73.4 °F - 64.4 °F 73% 29.79 in 10.0 mi West 6.9 mph - N/A   Overcast
4:15 PM 73.4 °F - 64.4 °F 73% 29.79 in 10.0 mi WNW 6.9 mph - N/A   Overcast
4:35 PM 73.4 °F - 64.4 °F 73% 29.79 in 10.0 mi NW 6.9 mph - N/A   Overcast
4:55 PM 73.4 °F - 64.4 °F 73% 29.79 in 10.0 mi NW 6.9 mph - N/A   Partly Cloudy
5:15 PM 73.4 °F - 64.4 °F 73% 29.80 in 10.0 mi NNW 6.9 mph - N/A   Clear
5:35 PM 71.6 °F - 66.2 °F 83% 29.81 in 10.0 mi NNW 4.6 mph - N/A   Light Drizzle
5:55 PM 71.6 °F - 66.2 °F 83% 29.81 in 10.0 mi NW 4.6 mph - N/A   Light Drizzle
6:15 PM 69.8 °F - 66.2 °F 88% 29.81 in 10.0 mi NNW 6.9 mph - N/A   Overcast
6:35 PM 69.8 °F - 66.2 °F 88% 29.80 in 10.0 mi NNW 6.9 mph - N/A   Light Drizzle
6:55 PM 69.8 °F - 66.2 °F 88% 29.78 in 10.0 mi North 5.8 mph - N/A   Light Drizzle
7:15 PM 69.8 °F - 66.2 °F 88% 29.80 in 10.0 mi NNW 6.9 mph - N/A   Scattered Clouds
7:35 PM 68.0 °F - 66.2 °F 94% 29.81 in 10.0 mi NNW 4.6 mph - N/A   Scattered Clouds
7:55 PM 68.0 °F - 64.4 °F 88% 29.82 in 10.0 mi NW 4.6 mph - N/A   Scattered Clouds
8:15 PM 68.0 °F - 64.4 °F 88% 29.81 in 10.0 mi NW 6.9 mph - N/A   Scattered Clouds
8:35 PM 66.2 °F - 62.6 °F 88% 29.82 in 10.0 mi NW 9.2 mph - N/A   Clear
8:55 PM 66.2 °F - 59.0 °F 78% 29.83 in 10.0 mi NNW 9.2 mph - N/A   Partly Cloudy
9:15 PM 66.2 °F - 59.0 °F 78% 29.85 in 10.0 mi NW 6.9 mph 12.7 mph N/A   Mostly Cloudy
9:35 PM 66.2 °F - 55.4 °F 68% 29.85 in 10.0 mi NW 6.9 mph 13.8 mph N/A   Scattered Clouds
9:55 PM 64.4 °F - 55.4 °F 73% 29.86 in 10.0 mi NW 5.8 mph - N/A   Partly Cloudy
10:15 PM 64.4 °F - 53.6 °F 68% 29.88 in 10.0 mi NW 9.2 mph - N/A   Scattered Clouds
10:35 PM 64.4 °F - 51.8 °F 64% 29.88 in 10.0 mi NW 6.9 mph - N/A   Mostly Cloudy
10:55 PM 64.4 °F - 53.6 °F 68% 29.89 in 10.0 mi WNW 5.8 mph - N/A   Mostly Cloudy
11:15 PM 62.6 °F - 53.6 °F 72% 29.90 in 10.0 mi West 8.1 mph - N/A   Overcast
11:35 PM 62.6 °F - 53.6 °F 72% 29.88 in 10.0 mi WNW 8.1 mph - N/A   Mostly Cloudy
11:55 PM 60.8 °F - 53.6 °F 77% 29.88 in 10.0 mi WNW 9.2 mph - N/A   Partly Cloudy